Year,Month,Day,Hour,Minute,Value (Times are PST for temperature in C)
2022,04,17,00,00,5.70
2022,04,17,00,01,5.70
2022,04,17,00,02,5.70
2022,04,17,00,03,5.70
2022,04,17,00,04,5.70
2022,04,17,00,05,5.70
2022,04,17,00,06,5.70
2022,04,17,00,07,5.70
2022,04,17,00,08,5.70
2022,04,17,00,09,5.70
2022,04,17,00,10,5.80
2022,04,17,00,11,5.80
2022,04,17,00,12,5.80
2022,04,17,00,13,5.80
2022,04,17,00,14,5.80
2022,04,17,00,15,5.80
2022,04,17,00,16,5.80
2022,04,17,00,17,5.80
2022,04,17,00,18,5.80
2022,04,17,00,19,5.80
2022,04,17,00,20,5.80
2022,04,17,00,21,5.80
2022,04,17,00,22,5.80
2022,04,17,00,23,5.70
2022,04,17,00,24,5.70
2022,04,17,00,25,5.70
2022,04,17,00,26,5.70
2022,04,17,00,27,5.70
2022,04,17,00,28,5.70
2022,04,17,00,29,5.70
2022,04,17,00,30,5.70
2022,04,17,00,31,5.70
2022,04,17,00,32,5.70
2022,04,17,00,33,5.70
2022,04,17,00,34,5.70
2022,04,17,00,35,5.70
2022,04,17,00,36,5.70
2022,04,17,00,37,5.70
2022,04,17,00,38,5.70
2022,04,17,00,39,5.70
2022,04,17,00,40,5.70
2022,04,17,00,41,5.70
2022,04,17,00,42,5.70
2022,04,17,00,43,5.70
2022,04,17,00,44,5.70
2022,04,17,00,45,5.70
2022,04,17,00,46,5.70
2022,04,17,00,47,5.70
2022,04,17,00,48,5.70
2022,04,17,00,49,5.70
2022,04,17,00,50,5.70
2022,04,17,00,51,5.70
2022,04,17,00,52,5.70
2022,04,17,00,53,5.70
2022,04,17,00,54,5.70
2022,04,17,00,55,5.70
2022,04,17,00,56,5.70
2022,04,17,00,57,5.70
2022,04,17,00,58,5.70
2022,04,17,00,59,5.70
2022,04,17,01,00,5.70
2022,04,17,01,01,5.70
2022,04,17,01,02,5.70
2022,04,17,01,03,5.70
2022,04,17,01,04,5.70
2022,04,17,01,05,5.70
2022,04,17,01,06,5.70
2022,04,17,01,07,5.70
2022,04,17,01,08,5.70
2022,04,17,01,09,5.70
2022,04,17,01,10,5.70
2022,04,17,01,11,5.70
2022,04,17,01,12,5.70
2022,04,17,01,13,5.70
2022,04,17,01,14,5.70
2022,04,17,01,15,5.70
2022,04,17,01,16,5.60
2022,04,17,01,17,5.60
2022,04,17,01,18,5.60
2022,04,17,01,19,5.60
2022,04,17,01,20,5.60
2022,04,17,01,21,5.60
2022,04,17,01,22,5.60
2022,04,17,01,23,5.60
2022,04,17,01,24,5.60
2022,04,17,01,25,5.60
2022,04,17,01,26,5.60
2022,04,17,01,27,5.60
2022,04,17,01,28,5.60
2022,04,17,01,29,5.60
2022,04,17,01,30,5.60
2022,04,17,01,31,5.60
2022,04,17,01,32,5.60
2022,04,17,01,33,5.60
2022,04,17,01,34,5.60
2022,04,17,01,35,5.60
2022,04,17,01,36,5.60
2022,04,17,01,37,5.60
2022,04,17,01,38,5.60
2022,04,17,01,39,5.60
2022,04,17,01,40,5.60
2022,04,17,01,41,5.60
2022,04,17,01,42,5.60
2022,04,17,01,43,5.60
2022,04,17,01,44,5.60
2022,04,17,01,45,5.50
2022,04,17,01,46,5.50
2022,04,17,01,47,5.50
2022,04,17,01,48,5.50
2022,04,17,01,49,5.50
2022,04,17,01,50,5.50
2022,04,17,01,51,5.50
2022,04,17,01,52,5.40
2022,04,17,01,53,5.40
2022,04,17,01,54,5.40
2022,04,17,01,55,5.40
2022,04,17,01,56,5.40
2022,04,17,01,57,5.40
2022,04,17,01,58,5.40
2022,04,17,01,59,5.40
2022,04,17,02,00,5.40
2022,04,17,02,01,5.40
2022,04,17,02,02,5.40
2022,04,17,02,03,5.40
2022,04,17,02,04,5.40
2022,04,17,02,05,5.40
2022,04,17,02,06,5.40
2022,04,17,02,07,5.40
2022,04,17,02,08,5.40
2022,04,17,02,09,5.30
2022,04,17,02,10,5.30
2022,04,17,02,11,5.30
2022,04,17,02,12,5.30
2022,04,17,02,13,5.30
2022,04,17,02,14,5.30
2022,04,17,02,15,5.30
2022,04,17,02,16,5.30
2022,04,17,02,17,5.30
2022,04,17,02,18,5.30
2022,04,17,02,19,5.30
2022,04,17,02,20,5.40
2022,04,17,02,21,5.40
2022,04,17,02,22,5.40
2022,04,17,02,23,5.40
2022,04,17,02,24,5.40
2022,04,17,02,25,5.40
2022,04,17,02,26,5.40
2022,04,17,02,27,5.40
2022,04,17,02,28,5.40
2022,04,17,02,29,5.40
2022,04,17,02,30,5.40
2022,04,17,02,31,5.40
2022,04,17,02,32,5.40
2022,04,17,02,33,5.40
2022,04,17,02,34,5.40
2022,04,17,02,35,5.40
2022,04,17,02,36,5.40
2022,04,17,02,37,5.40
2022,04,17,02,38,5.30
2022,04,17,02,39,5.30
2022,04,17,02,40,5.30
2022,04,17,02,41,5.30
2022,04,17,02,42,5.30
2022,04,17,02,43,5.30
2022,04,17,02,44,5.30
2022,04,17,02,45,5.30
2022,04,17,02,46,5.30
2022,04,17,02,47,5.30
2022,04,17,02,48,5.30
2022,04,17,02,49,5.30
2022,04,17,02,50,5.30
2022,04,17,02,51,5.30
2022,04,17,02,52,5.30
2022,04,17,02,53,5.30
2022,04,17,02,54,5.20
2022,04,17,02,55,5.20
2022,04,17,02,56,5.20
2022,04,17,02,57,5.20
2022,04,17,02,58,5.20
2022,04,17,02,59,5.20
2022,04,17,03,00,5.20
2022,04,17,03,01,5.20
2022,04,17,03,02,5.20
2022,04,17,03,03,5.20
2022,04,17,03,04,5.20
2022,04,17,03,05,5.20
2022,04,17,03,06,5.20
2022,04,17,03,07,5.20
2022,04,17,03,08,5.20
2022,04,17,03,09,5.30
2022,04,17,03,10,5.30
2022,04,17,03,11,5.20
2022,04,17,03,12,5.20
2022,04,17,03,13,5.20
2022,04,17,03,14,5.20
2022,04,17,03,15,5.20
2022,04,17,03,16,5.20
2022,04,17,03,17,5.20
2022,04,17,03,18,5.20
2022,04,17,03,19,5.20
2022,04,17,03,20,5.20
2022,04,17,03,21,5.20
2022,04,17,03,22,5.20
2022,04,17,03,23,5.20
2022,04,17,03,24,5.20
2022,04,17,03,25,5.20
2022,04,17,03,26,5.20
2022,04,17,03,27,5.20
2022,04,17,03,28,5.20
2022,04,17,03,29,5.20
2022,04,17,03,30,5.20
2022,04,17,03,31,5.20
2022,04,17,03,32,5.10
2022,04,17,03,33,5.10
2022,04,17,03,34,5.10
2022,04,17,03,35,5.10
2022,04,17,03,36,5.10
2022,04,17,03,37,5.10
2022,04,17,03,38,5.10
2022,04,17,03,39,5.10
2022,04,17,03,40,5.10
2022,04,17,03,41,5.10
2022,04,17,03,42,5.10
2022,04,17,03,43,5.10
2022,04,17,03,44,5.20
2022,04,17,03,45,5.20
2022,04,17,03,46,5.20
2022,04,17,03,47,5.20
2022,04,17,03,48,5.20
2022,04,17,03,49,5.20
2022,04,17,03,50,5.20
2022,04,17,03,51,5.20
2022,04,17,03,52,5.20
2022,04,17,03,53,5.20
2022,04,17,03,54,5.20
2022,04,17,03,55,5.20
2022,04,17,03,56,5.20
2022,04,17,03,57,5.20
2022,04,17,03,58,5.20
2022,04,17,03,59,5.20
2022,04,17,04,00,5.20
2022,04,17,04,01,5.20
2022,04,17,04,02,5.10
2022,04,17,04,03,5.10
2022,04,17,04,04,5.10
2022,04,17,04,05,5.10
2022,04,17,04,06,5.10
2022,04,17,04,07,5.10
2022,04,17,04,08,5.10
2022,04,17,04,09,5.10
2022,04,17,04,10,5.00
2022,04,17,04,11,4.90
2022,04,17,04,12,4.90
2022,04,17,04,13,4.90
2022,04,17,04,14,4.90
2022,04,17,04,15,4.80
2022,04,17,04,16,4.80
2022,04,17,04,17,4.80
2022,04,17,04,18,4.70
2022,04,17,04,19,4.70
2022,04,17,04,20,4.70
2022,04,17,04,21,4.60
2022,04,17,04,22,4.60
2022,04,17,04,23,4.60
2022,04,17,04,24,4.60
2022,04,17,04,25,4.50
2022,04,17,04,26,4.50
2022,04,17,04,27,4.50
2022,04,17,04,28,4.40
2022,04,17,04,29,4.40
2022,04,17,04,30,4.40
2022,04,17,04,31,4.30
2022,04,17,04,32,4.30
2022,04,17,04,33,4.30
2022,04,17,04,34,4.30
2022,04,17,04,35,4.30
2022,04,17,04,36,4.30
2022,04,17,04,37,4.20
2022,04,17,04,38,4.20
2022,04,17,04,39,4.20
2022,04,17,04,40,4.20
2022,04,17,04,41,4.20
2022,04,17,04,42,4.10
2022,04,17,04,43,4.10
2022,04,17,04,44,4.00
2022,04,17,04,45,4.00
2022,04,17,04,46,4.00
2022,04,17,04,47,3.90
2022,04,17,04,48,3.90
2022,04,17,04,49,3.90
2022,04,17,04,50,3.80
2022,04,17,04,51,3.80
2022,04,17,04,52,3.80
2022,04,17,04,53,3.80
2022,04,17,04,54,3.70
2022,04,17,04,55,3.70
2022,04,17,04,56,3.60
2022,04,17,04,57,3.60
2022,04,17,04,58,3.50
2022,04,17,04,59,3.50
2022,04,17,05,00,3.50
2022,04,17,05,01,3.50
2022,04,17,05,02,3.50
2022,04,17,05,03,3.40
2022,04,17,05,04,3.40
2022,04,17,05,05,3.40
2022,04,17,05,06,3.40
2022,04,17,05,07,3.40
2022,04,17,05,08,3.30
2022,04,17,05,09,3.30
2022,04,17,05,10,3.20
2022,04,17,05,11,3.20
2022,04,17,05,12,3.20
2022,04,17,05,13,3.20
2022,04,17,05,14,3.20
2022,04,17,05,15,3.30
2022,04,17,05,16,3.30
2022,04,17,05,17,3.30
2022,04,17,05,18,3.30
2022,04,17,05,19,3.30
2022,04,17,05,20,3.30
2022,04,17,05,21,3.20
2022,04,17,05,22,3.20
2022,04,17,05,23,3.10
2022,04,17,05,24,3.10
2022,04,17,05,25,3.10
2022,04,17,05,26,3.00
2022,04,17,05,27,2.90
2022,04,17,05,28,2.90
2022,04,17,05,29,2.90
2022,04,17,05,30,2.80
2022,04,17,05,31,2.70
2022,04,17,05,32,2.70
2022,04,17,05,33,2.70
2022,04,17,05,34,2.60
2022,04,17,05,35,2.50
2022,04,17,05,36,2.50
2022,04,17,05,37,2.40
2022,04,17,05,38,2.40
2022,04,17,05,39,2.30
2022,04,17,05,40,2.30
2022,04,17,05,41,2.30
2022,04,17,05,42,2.20
2022,04,17,05,43,2.20
2022,04,17,05,44,2.20
2022,04,17,05,45,2.20
2022,04,17,05,46,2.10
2022,04,17,05,47,2.10
2022,04,17,05,48,2.10
2022,04,17,05,49,2.00
2022,04,17,05,50,2.00
2022,04,17,05,51,2.00
2022,04,17,05,52,1.90
2022,04,17,05,53,1.90
2022,04,17,05,54,1.90
2022,04,17,05,55,1.90
2022,04,17,05,56,1.80
2022,04,17,05,57,1.80
2022,04,17,05,58,1.80
2022,04,17,05,59,1.80
2022,04,17,06,00,1.70
2022,04,17,06,01,1.70
2022,04,17,06,02,1.70
2022,04,17,06,03,1.60
2022,04,17,06,04,1.60
2022,04,17,06,05,1.60
2022,04,17,06,06,1.60
2022,04,17,06,07,1.50
2022,04,17,06,08,1.50
2022,04,17,06,09,1.50
2022,04,17,06,10,1.50
2022,04,17,06,11,1.40
2022,04,17,06,12,1.40
2022,04,17,06,13,1.40
2022,04,17,06,14,1.40
2022,04,17,06,15,1.30
2022,04,17,06,16,1.30
2022,04,17,06,17,1.30
2022,04,17,06,18,1.30
2022,04,17,06,19,1.30
2022,04,17,06,20,1.30
2022,04,17,06,21,1.30
2022,04,17,06,22,1.20
2022,04,17,06,23,1.20
2022,04,17,06,24,1.20
2022,04,17,06,25,1.20
2022,04,17,06,26,1.20
2022,04,17,06,27,1.10
2022,04,17,06,28,1.10
2022,04,17,06,29,1.10
2022,04,17,06,30,1.10
2022,04,17,06,31,1.10
2022,04,17,06,32,1.10
2022,04,17,06,33,1.10
2022,04,17,06,34,1.00
2022,04,17,06,35,1.00
2022,04,17,06,36,1.00
2022,04,17,06,37,1.00
2022,04,17,06,38,1.00
2022,04,17,06,39,1.00
2022,04,17,06,40,1.00
2022,04,17,06,41,0.90
2022,04,17,06,42,0.90
2022,04,17,06,43,0.90
2022,04,17,06,44,0.90
2022,04,17,06,45,0.90
2022,04,17,06,46,0.90
2022,04,17,06,47,1.00
2022,04,17,06,48,1.00
2022,04,17,06,49,1.00
2022,04,17,06,50,1.00
2022,04,17,06,51,1.00
2022,04,17,06,52,1.00
2022,04,17,06,53,1.10
2022,04,17,06,54,1.10
2022,04,17,06,55,1.10
2022,04,17,06,56,1.10
2022,04,17,06,57,1.10
2022,04,17,06,58,1.20
2022,04,17,06,59,1.20
2022,04,17,07,00,1.20
2022,04,17,07,01,1.20
2022,04,17,07,02,1.20
2022,04,17,07,03,1.20
2022,04,17,07,04,1.20
2022,04,17,07,05,1.20
2022,04,17,07,06,1.20
2022,04,17,07,07,1.20
2022,04,17,07,08,1.30
2022,04,17,07,09,1.30
2022,04,17,07,10,1.30
2022,04,17,07,11,1.30
2022,04,17,07,12,1.30
2022,04,17,07,13,1.30
2022,04,17,07,14,1.30
2022,04,17,07,15,1.40
2022,04,17,07,16,1.50
2022,04,17,07,17,1.60
2022,04,17,07,18,1.60
2022,04,17,07,19,1.60
2022,04,17,07,20,1.60
2022,04,17,07,21,1.60
2022,04,17,07,22,1.60
2022,04,17,07,23,1.60
2022,04,17,07,24,1.60
2022,04,17,07,25,1.70
2022,04,17,07,26,1.70
2022,04,17,07,27,1.70
2022,04,17,07,28,1.70
2022,04,17,07,29,1.70
2022,04,17,07,30,1.80
2022,04,17,07,31,1.80
2022,04,17,07,32,1.80
2022,04,17,07,33,1.80
2022,04,17,07,34,1.80
2022,04,17,07,35,1.80
2022,04,17,07,36,1.80
2022,04,17,07,37,1.90
2022,04,17,07,38,1.90
2022,04,17,07,39,2.00
2022,04,17,07,40,2.00
2022,04,17,07,41,2.10
2022,04,17,07,42,2.10
2022,04,17,07,43,2.20
2022,04,17,07,44,2.30
2022,04,17,07,45,2.50
2022,04,17,07,46,2.60
2022,04,17,07,47,2.70
2022,04,17,07,48,2.70
2022,04,17,07,49,2.70
2022,04,17,07,50,2.80
2022,04,17,07,51,2.80
2022,04,17,07,52,2.80
2022,04,17,07,53,2.80
2022,04,17,07,54,2.80
2022,04,17,07,55,2.80
2022,04,17,07,56,2.80
2022,04,17,07,57,2.90
2022,04,17,07,58,2.90
2022,04,17,07,59,2.90
2022,04,17,08,00,2.90
2022,04,17,08,01,2.90
2022,04,17,08,02,3.10
2022,04,17,08,03,3.10
2022,04,17,08,04,3.10
2022,04,17,08,05,3.20
2022,04,17,08,06,3.20
2022,04,17,08,07,3.20
2022,04,17,08,08,3.30
2022,04,17,08,09,3.30
2022,04,17,08,10,3.40
2022,04,17,08,11,3.50
2022,04,17,08,12,3.50
2022,04,17,08,13,3.60
2022,04,17,08,14,3.70
2022,04,17,08,15,3.80
2022,04,17,08,16,3.90
2022,04,17,08,17,4.00
2022,04,17,08,18,4.00
2022,04,17,08,19,4.10
2022,04,17,08,20,4.20
2022,04,17,08,21,4.20
2022,04,17,08,22,4.30
2022,04,17,08,23,4.30
2022,04,17,08,24,4.40
2022,04,17,08,25,4.40
2022,04,17,08,26,4.50
2022,04,17,08,27,4.50
2022,04,17,08,28,4.50
2022,04,17,08,29,4.50
2022,04,17,08,30,4.50
2022,04,17,08,31,4.50
2022,04,17,08,32,4.50
2022,04,17,08,33,4.60
2022,04,17,08,34,4.60
2022,04,17,08,35,4.60
2022,04,17,08,36,4.60
2022,04,17,08,37,4.60
2022,04,17,08,38,4.70
2022,04,17,08,39,4.70
2022,04,17,08,40,4.80
2022,04,17,08,41,4.80
2022,04,17,08,42,4.90
2022,04,17,08,43,4.90
2022,04,17,08,44,5.00
2022,04,17,08,45,5.10
2022,04,17,08,46,5.20
2022,04,17,08,47,5.30
2022,04,17,08,48,5.30
2022,04,17,08,49,5.40
2022,04,17,08,50,5.60
2022,04,17,08,51,5.70
2022,04,17,08,52,5.70
2022,04,17,08,53,5.80
2022,04,17,08,54,5.80
2022,04,17,08,55,5.90
2022,04,17,08,56,6.00
2022,04,17,08,57,6.10
2022,04,17,08,58,6.10
2022,04,17,08,59,6.20
2022,04,17,09,00,6.20
2022,04,17,09,01,6.20
2022,04,17,09,02,6.10
2022,04,17,09,03,6.20
2022,04,17,09,04,6.20
2022,04,17,09,05,6.20
2022,04,17,09,06,6.20
2022,04,17,09,07,6.30
2022,04,17,09,08,6.30
2022,04,17,09,09,6.30
2022,04,17,09,10,6.30
2022,04,17,09,11,6.40
2022,04,17,09,12,6.40
2022,04,17,09,13,6.40
2022,04,17,09,14,6.30
2022,04,17,09,15,6.30
2022,04,17,09,16,6.40
2022,04,17,09,17,6.40
2022,04,17,09,18,6.40
2022,04,17,09,19,6.40
2022,04,17,09,20,6.40
2022,04,17,09,21,6.40
2022,04,17,09,22,6.40
2022,04,17,09,23,6.40
2022,04,17,09,24,6.40
2022,04,17,09,25,6.40
2022,04,17,09,26,6.40
2022,04,17,09,27,6.40
2022,04,17,09,28,6.40
2022,04,17,09,29,6.40
2022,04,17,09,30,6.40
2022,04,17,09,31,6.40
2022,04,17,09,32,6.40
2022,04,17,09,33,6.40
2022,04,17,09,34,6.40
2022,04,17,09,35,6.40
2022,04,17,09,36,6.50
2022,04,17,09,37,6.40
2022,04,17,09,38,6.40
2022,04,17,09,39,6.40
2022,04,17,09,40,6.40
2022,04,17,09,41,6.40
2022,04,17,09,42,6.40
2022,04,17,09,43,6.50
2022,04,17,09,44,6.60
2022,04,17,09,45,6.60
2022,04,17,09,46,6.70
2022,04,17,09,47,6.80
2022,04,17,09,48,6.90
2022,04,17,09,49,7.00
2022,04,17,09,50,6.90
2022,04,17,09,51,7.00
2022,04,17,09,52,7.00
2022,04,17,09,53,7.00
2022,04,17,09,54,7.00
2022,04,17,09,55,7.00
2022,04,17,09,56,7.00
2022,04,17,09,57,7.00
2022,04,17,09,58,7.10
2022,04,17,09,59,7.10
2022,04,17,10,00,7.20
2022,04,17,10,01,7.20
2022,04,17,10,02,7.20
2022,04,17,10,03,7.20
2022,04,17,10,04,7.10
2022,04,17,10,05,7.10
2022,04,17,10,06,7.20
2022,04,17,10,07,7.20
2022,04,17,10,08,7.20
2022,04,17,10,09,7.20
2022,04,17,10,10,7.20
2022,04,17,10,11,7.20
2022,04,17,10,12,7.20
2022,04,17,10,13,7.30
2022,04,17,10,14,7.30
2022,04,17,10,15,7.30
2022,04,17,10,16,7.30
2022,04,17,10,17,7.20
2022,04,17,10,18,7.20
2022,04,17,10,19,7.20
2022,04,17,10,20,7.20
2022,04,17,10,21,7.20
2022,04,17,10,22,7.30
2022,04,17,10,23,7.30
2022,04,17,10,24,7.30
2022,04,17,10,25,7.20
2022,04,17,10,26,7.10
2022,04,17,10,27,7.20
2022,04,17,10,28,7.10
2022,04,17,10,29,7.10
2022,04,17,10,30,7.10
2022,04,17,10,31,7.10
2022,04,17,10,32,7.10
2022,04,17,10,33,7.10
2022,04,17,10,34,7.20
2022,04,17,10,35,7.40
2022,04,17,10,36,7.50
2022,04,17,10,37,7.50
2022,04,17,10,38,7.50
2022,04,17,10,39,7.50
2022,04,17,10,40,7.60
2022,04,17,10,41,7.50
2022,04,17,10,42,7.50
2022,04,17,10,43,7.40
2022,04,17,10,44,7.30
2022,04,17,10,45,7.30
2022,04,17,10,46,7.40
2022,04,17,10,47,7.50
2022,04,17,10,48,7.50
2022,04,17,10,49,7.50
2022,04,17,10,50,7.50
2022,04,17,10,51,7.40
2022,04,17,10,52,7.50
2022,04,17,10,53,7.50
2022,04,17,10,54,7.60
2022,04,17,10,55,7.70
2022,04,17,10,56,7.90
2022,04,17,10,57,7.90
2022,04,17,10,58,8.00
2022,04,17,10,59,7.90
2022,04,17,11,00,7.80
2022,04,17,11,01,7.80
2022,04,17,11,02,7.70
2022,04,17,11,03,7.70
2022,04,17,11,04,7.80
2022,04,17,11,05,7.90
2022,04,17,11,06,8.00
2022,04,17,11,07,8.00
2022,04,17,11,08,8.00
2022,04,17,11,09,8.10
2022,04,17,11,10,8.10
2022,04,17,11,11,8.10
2022,04,17,11,12,8.20
2022,04,17,11,13,8.20
2022,04,17,11,14,8.20
2022,04,17,11,15,8.20
2022,04,17,11,16,8.20
2022,04,17,11,17,8.10
2022,04,17,11,18,8.10
2022,04,17,11,19,8.10
2022,04,17,11,20,8.20
2022,04,17,11,21,8.20
2022,04,17,11,22,8.20
2022,04,17,11,23,8.20
2022,04,17,11,24,8.30
2022,04,17,11,25,8.30
2022,04,17,11,26,8.20
2022,04,17,11,27,8.00
2022,04,17,11,28,8.00
2022,04,17,11,29,8.00
2022,04,17,11,30,8.00
2022,04,17,11,31,8.00
2022,04,17,11,32,7.90
2022,04,17,11,33,7.90
2022,04,17,11,34,7.90
2022,04,17,11,35,7.80
2022,04,17,11,36,7.80
2022,04,17,11,37,7.80
2022,04,17,11,38,7.80
2022,04,17,11,39,7.80
2022,04,17,11,40,7.80
2022,04,17,11,41,7.80
2022,04,17,11,42,7.80
2022,04,17,11,43,7.80
2022,04,17,11,44,7.80
2022,04,17,11,45,7.80
2022,04,17,11,46,7.80
2022,04,17,11,47,7.80
2022,04,17,11,48,7.80
2022,04,17,11,49,7.80
2022,04,17,11,50,7.80
2022,04,17,11,51,7.90
2022,04,17,11,52,8.00
2022,04,17,11,53,8.10
2022,04,17,11,54,8.20
2022,04,17,11,55,8.20
2022,04,17,11,56,8.20
2022,04,17,11,57,8.20
2022,04,17,11,58,8.30
2022,04,17,11,59,8.40
2022,04,17,12,00,8.40
2022,04,17,12,01,8.50
2022,04,17,12,02,8.70
2022,04,17,12,03,8.70
2022,04,17,12,04,8.80
2022,04,17,12,05,8.70
2022,04,17,12,06,8.70
2022,04,17,12,07,8.70
2022,04,17,12,08,8.70
2022,04,17,12,09,8.80
2022,04,17,12,10,8.90
2022,04,17,12,11,8.90
2022,04,17,12,12,8.90
2022,04,17,12,13,9.00
2022,04,17,12,14,9.00
2022,04,17,12,15,9.10
2022,04,17,12,16,9.20
2022,04,17,12,17,9.30
2022,04,17,12,18,9.40
2022,04,17,12,19,9.50
2022,04,17,12,20,9.50
2022,04,17,12,21,9.50
2022,04,17,12,22,9.40
2022,04,17,12,23,9.30
2022,04,17,12,24,9.20
2022,04,17,12,25,9.20
2022,04,17,12,26,9.20
2022,04,17,12,27,9.10
2022,04,17,12,28,9.10
2022,04,17,12,29,9.00
2022,04,17,12,30,9.00
2022,04,17,12,31,8.90
2022,04,17,12,32,8.90
2022,04,17,12,33,8.80
2022,04,17,12,34,8.70
2022,04,17,12,35,8.90
2022,04,17,12,36,9.00
2022,04,17,12,37,9.00
2022,04,17,12,38,9.10
2022,04,17,12,39,9.20
2022,04,17,12,40,9.20
2022,04,17,12,41,9.10
2022,04,17,12,42,9.00
2022,04,17,12,43,9.00
2022,04,17,12,44,9.00
2022,04,17,12,45,9.00
2022,04,17,12,46,9.10
2022,04,17,12,47,9.20
2022,04,17,12,48,9.20
2022,04,17,12,49,9.30
2022,04,17,12,50,9.40
2022,04,17,12,51,9.40
2022,04,17,12,52,9.50
2022,04,17,12,53,9.50
2022,04,17,12,54,9.60
2022,04,17,12,55,9.70
2022,04,17,12,56,9.70
2022,04,17,12,57,9.80
2022,04,17,12,58,9.80
2022,04,17,12,59,9.70
2022,04,17,13,00,9.70
2022,04,17,13,01,9.60
2022,04,17,13,02,9.60
2022,04,17,13,03,9.70
2022,04,17,13,04,9.70
2022,04,17,13,05,9.70
2022,04,17,13,06,9.70
2022,04,17,13,07,9.70
2022,04,17,13,08,9.70
2022,04,17,13,09,9.70
2022,04,17,13,10,9.60
2022,04,17,13,11,9.60
2022,04,17,13,12,9.60
2022,04,17,13,13,9.70
2022,04,17,13,14,9.70
2022,04,17,13,15,9.70
2022,04,17,13,16,9.70
2022,04,17,13,17,9.70
2022,04,17,13,18,9.70
2022,04,17,13,19,9.70
2022,04,17,13,20,9.70
2022,04,17,13,21,9.60
2022,04,17,13,22,9.60
2022,04,17,13,23,9.50
2022,04,17,13,24,9.50
2022,04,17,13,25,9.50
2022,04,17,13,26,9.50
2022,04,17,13,27,9.70
2022,04,17,13,28,9.80
2022,04,17,13,29,9.90
2022,04,17,13,30,9.80
2022,04,17,13,31,9.70
2022,04,17,13,32,9.80
2022,04,17,13,33,9.70
2022,04,17,13,34,9.80
2022,04,17,13,35,9.80
2022,04,17,13,36,9.90
2022,04,17,13,37,9.90
2022,04,17,13,38,9.90
2022,04,17,13,39,10.00
2022,04,17,13,40,10.10
2022,04,17,13,41,10.20
2022,04,17,13,42,10.20
2022,04,17,13,43,10.20
2022,04,17,13,44,10.20
2022,04,17,13,45,10.30
2022,04,17,13,46,10.50
2022,04,17,13,47,10.70
2022,04,17,13,48,10.80
2022,04,17,13,49,10.60
2022,04,17,13,50,10.60
2022,04,17,13,51,10.60
2022,04,17,13,52,10.50
2022,04,17,13,53,10.40
2022,04,17,13,54,10.50
2022,04,17,13,55,10.60
2022,04,17,13,56,10.60
2022,04,17,13,57,10.60
2022,04,17,13,58,10.60
2022,04,17,13,59,10.60
2022,04,17,14,00,10.50
2022,04,17,14,01,10.30
2022,04,17,14,02,10.20
2022,04,17,14,03,10.30
2022,04,17,14,04,10.30
2022,04,17,14,05,10.30
2022,04,17,14,06,10.30
2022,04,17,14,07,10.20
2022,04,17,14,08,10.10
2022,04,17,14,09,10.10
2022,04,17,14,10,10.10
2022,04,17,14,11,10.10
2022,04,17,14,12,10.10
2022,04,17,14,13,10.10
2022,04,17,14,14,10.20
2022,04,17,14,15,10.40
2022,04,17,14,16,10.40
2022,04,17,14,17,10.40
2022,04,17,14,18,10.40
2022,04,17,14,19,10.40
2022,04,17,14,20,10.40
2022,04,17,14,21,10.40
2022,04,17,14,22,10.50
2022,04,17,14,23,10.60
2022,04,17,14,24,10.60
2022,04,17,14,25,10.60
2022,04,17,14,26,10.60
2022,04,17,14,27,10.60
2022,04,17,14,28,10.60
2022,04,17,14,29,10.40
2022,04,17,14,30,10.40
2022,04,17,14,31,10.30
2022,04,17,14,32,10.30
2022,04,17,14,33,10.30
2022,04,17,14,34,10.30
2022,04,17,14,35,10.30
2022,04,17,14,36,10.30
2022,04,17,14,37,10.30
2022,04,17,14,38,10.30
2022,04,17,14,39,10.30
2022,04,17,14,40,10.30
2022,04,17,14,41,10.40
2022,04,17,14,42,10.40
2022,04,17,14,43,10.40
2022,04,17,14,44,10.50
2022,04,17,14,45,10.60
2022,04,17,14,46,10.70
2022,04,17,14,47,10.70
2022,04,17,14,48,10.80
2022,04,17,14,49,10.80
2022,04,17,14,50,10.80
2022,04,17,14,51,10.80
2022,04,17,14,52,10.80
2022,04,17,14,53,10.80
2022,04,17,14,54,10.80
2022,04,17,14,55,10.80
2022,04,17,14,56,10.90
2022,04,17,14,57,11.00
2022,04,17,14,58,11.10
2022,04,17,14,59,11.20
2022,04,17,15,00,11.20
2022,04,17,15,01,11.20
2022,04,17,15,02,11.10
2022,04,17,15,03,11.00
2022,04,17,15,04,10.90
2022,04,17,15,05,10.90
2022,04,17,15,06,10.90
2022,04,17,15,07,10.90
2022,04,17,15,08,10.90
2022,04,17,15,09,10.90
2022,04,17,15,10,10.90
2022,04,17,15,11,10.90
2022,04,17,15,12,10.90
2022,04,17,15,13,10.90
2022,04,17,15,14,11.00
2022,04,17,15,15,11.10
2022,04,17,15,16,11.10
2022,04,17,15,17,11.10
2022,04,17,15,18,11.10
2022,04,17,15,19,11.10
2022,04,17,15,20,11.00
2022,04,17,15,21,10.90
2022,04,17,15,22,10.90
2022,04,17,15,23,11.00
2022,04,17,15,24,11.10
2022,04,17,15,25,11.20
2022,04,17,15,26,11.40
2022,04,17,15,27,11.40
2022,04,17,15,28,11.40
2022,04,17,15,29,11.50
2022,04,17,15,30,11.60
2022,04,17,15,31,11.70
2022,04,17,15,32,11.70
2022,04,17,15,33,11.80
2022,04,17,15,34,11.80
2022,04,17,15,35,11.70
2022,04,17,15,36,11.70
2022,04,17,15,37,11.70
2022,04,17,15,38,11.60
2022,04,17,15,39,11.60
2022,04,17,15,40,11.60
2022,04,17,15,41,11.60
2022,04,17,15,42,11.60
2022,04,17,15,43,11.40
2022,04,17,15,44,11.40
2022,04,17,15,45,11.30
2022,04,17,15,46,11.30
2022,04,17,15,47,11.30
2022,04,17,15,48,11.30
2022,04,17,15,49,11.40
2022,04,17,15,50,11.40
2022,04,17,15,51,11.40
2022,04,17,15,52,11.50
2022,04,17,15,53,11.60
2022,04,17,15,54,11.60
2022,04,17,15,55,11.60
2022,04,17,15,56,11.60
2022,04,17,15,57,11.60
2022,04,17,15,58,11.60
2022,04,17,15,59,11.60
2022,04,17,16,00,11.70
2022,04,17,16,01,11.70
2022,04,17,16,02,11.80
2022,04,17,16,03,11.80
2022,04,17,16,04,11.80
2022,04,17,16,05,11.80
2022,04,17,16,06,11.80
2022,04,17,16,07,11.80
2022,04,17,16,08,11.80
2022,04,17,16,09,11.80
2022,04,17,16,10,11.80
2022,04,17,16,11,11.70
2022,04,17,16,12,11.70
2022,04,17,16,13,11.70
2022,04,17,16,14,11.60
2022,04,17,16,15,11.60
2022,04,17,16,16,11.60
2022,04,17,16,17,11.70
2022,04,17,16,18,11.80
2022,04,17,16,19,11.80
2022,04,17,16,20,11.90
2022,04,17,16,21,12.00
2022,04,17,16,22,12.00
2022,04,17,16,23,12.10
2022,04,17,16,24,12.10
2022,04,17,16,25,12.10
2022,04,17,16,26,12.10
2022,04,17,16,27,12.10
2022,04,17,16,28,12.00
2022,04,17,16,29,12.00
2022,04,17,16,30,12.00
2022,04,17,16,31,12.00
2022,04,17,16,32,12.00
2022,04,17,16,33,11.90
2022,04,17,16,34,11.80
2022,04,17,16,35,11.70
2022,04,17,16,36,11.60
2022,04,17,16,37,11.60
2022,04,17,16,38,11.60
2022,04,17,16,39,11.60
2022,04,17,16,40,11.60
2022,04,17,16,41,11.70
2022,04,17,16,42,11.70
2022,04,17,16,43,11.70
2022,04,17,16,44,11.70
2022,04,17,16,45,11.70
2022,04,17,16,46,11.70
2022,04,17,16,47,11.60
2022,04,17,16,48,11.70
2022,04,17,16,49,11.80
2022,04,17,16,50,11.80
2022,04,17,16,51,11.80
2022,04,17,16,52,11.80
2022,04,17,16,53,11.90
2022,04,17,16,54,11.90
2022,04,17,16,55,11.90
2022,04,17,16,56,11.80
2022,04,17,16,57,11.80
2022,04,17,16,58,11.80
2022,04,17,16,59,11.80
2022,04,17,17,00,11.90
2022,04,17,17,01,11.90
2022,04,17,17,02,12.00
2022,04,17,17,03,12.00
2022,04,17,17,04,12.00
2022,04,17,17,05,12.10
2022,04,17,17,06,12.00
2022,04,17,17,07,12.00
2022,04,17,17,08,12.00
2022,04,17,17,09,12.10
2022,04,17,17,10,12.10
2022,04,17,17,11,12.00
2022,04,17,17,12,12.00
2022,04,17,17,13,12.00
2022,04,17,17,14,12.00
2022,04,17,17,15,12.00
2022,04,17,17,16,11.90
2022,04,17,17,17,11.90
2022,04,17,17,18,11.90
2022,04,17,17,19,11.90
2022,04,17,17,20,11.80
2022,04,17,17,21,11.80
2022,04,17,17,22,11.80
2022,04,17,17,23,11.80
2022,04,17,17,24,11.80
2022,04,17,17,25,11.80
2022,04,17,17,26,11.80
2022,04,17,17,27,11.80
2022,04,17,17,28,11.80
2022,04,17,17,29,11.80
2022,04,17,17,30,11.80
2022,04,17,17,31,11.80
2022,04,17,17,32,11.80
2022,04,17,17,33,11.70
2022,04,17,17,34,11.70
2022,04,17,17,35,11.70
2022,04,17,17,36,11.70
2022,04,17,17,37,11.70
2022,04,17,17,38,11.80
2022,04,17,17,39,11.80
2022,04,17,17,40,11.70
2022,04,17,17,41,11.70
2022,04,17,17,42,11.80
2022,04,17,17,43,11.80
2022,04,17,17,44,11.80
2022,04,17,17,45,11.80
2022,04,17,17,46,11.80
2022,04,17,17,47,11.80
2022,04,17,17,48,11.80
2022,04,17,17,49,11.80
2022,04,17,17,50,11.80
2022,04,17,17,51,11.80
2022,04,17,17,52,11.80
2022,04,17,17,53,11.80
2022,04,17,17,54,11.80
2022,04,17,17,55,11.80